TimePST,TemperatureF,Dew PointF,Humidity,Sea Level PressureIn,VisibilityMPH,Wind Direction,Wind SpeedMPH,Gust SpeedMPH,PrecipitationIn,Events,Conditions,WindDirDegrees,DateUTC
12:53 AM,79.0,14.0,9,30.01,10.0,West,4.6,-,N/A,,Clear,270,2012-11-14 08:53:00
1:53 AM,81.0,12.9,8,30.01,10.0,WNW,3.5,-,N/A,,Clear,290,2012-11-14 09:53:00
2:53 AM,78.1,14.0,9,30.00,10.0,WNW,8.1,-,N/A,,Clear,290,2012-11-14 10:53:00
3:53 AM,75.9,15.1,10,30.00,10.0,WNW,5.8,-,N/A,,Clear,290,2012-11-14 11:53:00
4:53 AM,75.9,25.0,15,30.00,10.0,WNW,4.6,-,N/A,,Clear,300,2012-11-14 12:53:00
5:53 AM,66.2,28.0,24,30.00,7.0,Calm,Calm,-,N/A,,Partly Cloudy,0,2012-11-14 13:53:00
6:53 AM,67.6,36.0,31,30.01,7.0,SSE,5.8,-,N/A,,Mostly Cloudy,150,2012-11-14 14:53:00
7:53 AM,68.7,39.0,34,30.02,7.0,SSE,4.6,-,N/A,,Mostly Cloudy,160,2012-11-14 15:53:00
8:53 AM,72.0,39.0,30,30.03,7.0,South,9.2,-,N/A,,Mostly Cloudy,180,2012-11-14 16:53:00
9:53 AM,74.7,37.0,26,30.04,7.0,South,8.1,-,N/A,,Mostly Cloudy,180,2012-11-14 17:53:00
10:53 AM,71.6,43.0,36,30.04,7.0,SSW,5.8,-,N/A,,Mostly Cloudy,200,2012-11-14 18:53:00
11:53 AM,72.5,48.0,42,30.01,7.0,South,5.8,-,N/A,,Mostly Cloudy,180,2012-11-14 19:53:00
12:53 PM,74.8,41.0,30,29.99,7.0,Calm,Calm,-,N/A,,Mostly Cloudy,0,2012-11-14 20:53:00
1:53 PM,71.4,46.0,40,29.98,7.0,SSE,6.9,-,N/A,,Scattered Clouds,160,2012-11-14 21:53:00
2:53 PM,69.3,50.0,50,29.99,7.0,SSW,10.4,-,N/A,,Mostly Cloudy,200,2012-11-14 22:53:00
3:53 PM,68.7,54.0,59,29.98,7.0,South,4.6,-,N/A,,Mostly Cloudy,190,2012-11-14 23:53:00
4:53 PM,64.0,46.9,54,29.98,10.0,Calm,Calm,-,N/A,,Clear,0,2012-11-15 00:53:00
5:53 PM,66.9,28.9,24,29.99,10.0,Calm,Calm,-,N/A,,Clear,0,2012-11-15 01:53:00
6:53 PM,75.9,17.1,11,29.99,10.0,SW,9.2,-,N/A,,Clear,220,2012-11-15 02:53:00
7:53 PM,71.1,14.0,11,30.00,10.0,Calm,Calm,-,N/A,,Clear,0,2012-11-15 03:53:00
8:53 PM,73.9,25.0,16,30.01,10.0,SSW,4.6,-,N/A,,Clear,210,2012-11-15 04:53:00
9:53 PM,70.0,28.9,22,30.00,10.0,Calm,Calm,-,N/A,,Clear,0,2012-11-15 05:53:00
10:53 PM,75.9,30.9,19,30.00,10.0,South,5.8,-,N/A,,Clear,170,2012-11-15 06:53:00
11:53 PM,70.0,51.1,51,30.01,10.0,South,5.8,-,N/A,,Clear,170,2012-11-15 07:53:00